Location: Unspecified
(0.0000°N, 0.0000°E)
Time: 16:40:04
(UTC+00:00)

A-11 Canister half - Pass Details

Date: 21 December 2018
Orbit: 1516 x 1684 km, 47.2° (Epoch: 17 June)

Event Time Altitude Azimuth Distance (km) Brightness Sun altitude
Rises 19:42:33 0° 338° (NNW) 4,896 11.6 -23.8°
Reaches altitude 10° 19:46:08 10° 347° (NNW) 3,923 11.0 -24.6°
Enters shadow 19:52:27 31° 23° (NNE) 2,642 9.8 -26.0°
